FHY903P LTAI-LTFD

Flight info

Callsign FHY903P
Flight time 1h 17m
Altitude 32000
Route NESIL UN135 KUMAN UZ713 DUGLA
Aircraft A320/M-SDE3FGHIRWY/LB1

Departure

Time 2026-05-09 07:04
Airport Antalya International Airport (LTAI)

Arrival

Time 2026-05-09 08:21
Airport Balıkesir Koca Seyit Airport (LTFD)
Time Latitude Longitude Altitude Speed Heading
2026-05-09 06:47 36.88954 30.80139 176 ft 0 kts 97°
2026-05-09 06:56 36.88958 30.80109 176 ft 4 kts 108°
2026-05-09 06:56 36.88969 30.80082 176 ft 4 kts 153°
2026-05-09 06:57 36.88980 30.80078 176 ft 0 kts 186°
2026-05-09 06:59 36.88933 30.80071 176 ft 12 kts 186°
2026-05-09 06:59 36.88857 30.80063 176 ft 9 kts 171°
2026-05-09 06:59 36.88836 30.80125 176 ft 9 kts 96°
2026-05-09 07:00 36.88826 30.80227 176 ft 11 kts 97°
2026-05-09 07:00 36.88817 30.80324 176 ft 11 kts 97°
2026-05-09 07:00 36.88807 30.80438 176 ft 13 kts 96°
2026-05-09 07:00 36.88792 30.80548 177 ft 12 kts 117°
2026-05-09 07:01 36.88719 30.80571 177 ft 11 kts 187°
2026-05-09 07:01 36.88631 30.80559 177 ft 13 kts 186°
2026-05-09 07:01 36.88572 30.80550 177 ft 13 kts 186°
2026-05-09 07:01 36.88484 30.80538 177 ft 15 kts 186°
2026-05-09 07:02 36.88371 30.80522 177 ft 17 kts 186°
2026-05-09 07:02 36.88219 30.80501 176 ft 16 kts 186°
2026-05-09 07:02 36.88111 30.80487 176 ft 14 kts 184°
2026-05-09 07:02 36.88062 30.80528 176 ft 13 kts 110°
2026-05-09 07:03 36.88078 30.80636 175 ft 14 kts 58°
2026-05-09 07:03 36.88147 30.80729 176 ft 16 kts 18°
2026-05-09 07:03 36.88166 30.80733 176 ft 1 kts
2026-05-09 07:03 36.88356 30.80759 176 ft 77 kts
2026-05-09 07:04 36.89241 30.80879 177 ft 173 kts
2026-05-09 07:04 36.90552 30.81064 795 ft 205 kts
2026-05-09 07:04 36.92050 30.81309 1683 ft 233 kts 14°
2026-05-09 07:04 36.93495 30.82204 2446 ft 229 kts 33°
2026-05-09 07:05 36.94789 30.83333 3173 ft 230 kts 35°
2026-05-09 07:05 36.96104 30.84535 3926 ft 232 kts 36°
2026-05-09 07:05 36.97389 30.85732 4679 ft 235 kts 35°
2026-05-09 07:05 36.98712 30.87006 5448 ft 240 kts 36°
2026-05-09 07:06 37.00026 30.88254 6186 ft 242 kts 36°
2026-05-09 07:06 37.01345 30.89581 6904 ft 246 kts 45°
2026-05-09 07:06 37.02185 30.91462 7644 ft 254 kts 75°
2026-05-09 07:06 37.02268 30.93682 8395 ft 259 kts 94°
2026-05-09 07:07 37.02105 30.95940 9173 ft 263 kts 95°
2026-05-09 07:07 37.01907 30.98242 9968 ft 268 kts 97°
2026-05-09 07:07 37.01352 31.00462 10671 ft 272 kts 123°
2026-05-09 07:07 37.00035 31.02150 11373 ft 277 kts 151°
2026-05-09 07:08 36.98232 31.02923 12004 ft 275 kts 178°
2026-05-09 07:08 36.96313 31.02961 12637 ft 277 kts 185°
2026-05-09 07:08 36.94361 31.02886 13289 ft 288 kts 186°
2026-05-09 07:08 36.92301 31.02793 13951 ft 303 kts 186°
2026-05-09 07:09 36.90144 31.02691 14539 ft 318 kts 187°
2026-05-09 07:09 36.87971 31.02097 15140 ft 322 kts 208°
2026-05-09 07:09 36.86155 31.00477 15757 ft 325 kts 232°
2026-05-09 07:09 36.84990 30.98068 16378 ft 328 kts 254°
2026-05-09 07:10 36.84666 30.95238 17037 ft 333 kts 273°
2026-05-09 07:10 36.84815 30.92313 17600 ft 345 kts 276°
2026-05-09 07:10 36.85013 30.89288 18269 ft 352 kts 276°
2026-05-09 07:10 36.85211 30.86218 18975 ft 356 kts 276°
2026-05-09 07:11 36.85508 30.83144 19684 ft 358 kts 284°
2026-05-09 07:11 36.86466 30.80268 20403 ft 362 kts 298°
2026-05-09 07:11 36.87702 30.77518 21172 ft 364 kts 298°
2026-05-09 07:11 36.88950 30.74752 21888 ft 367 kts 298°
2026-05-09 07:12 36.90207 30.71964 22629 ft 369 kts 298°
2026-05-09 07:12 36.91469 30.69162 23355 ft 371 kts 298°
2026-05-09 07:12 36.92737 30.66339 23976 ft 373 kts 298°
2026-05-09 07:12 36.94011 30.63500 24528 ft 376 kts 298°
2026-05-09 07:13 36.95290 30.60645 25048 ft 378 kts 298°
2026-05-09 07:13 36.96581 30.57757 25559 ft 380 kts 298°
2026-05-09 07:13 36.97857 30.54900 26050 ft 383 kts 298°
2026-05-09 07:13 36.99162 30.51976 26558 ft 385 kts 298°
2026-05-09 07:14 37.00468 30.49047 27013 ft 387 kts 298°
2026-05-09 07:14 37.01788 30.46086 27510 ft 390 kts 298°
2026-05-09 07:14 37.03113 30.43110 27984 ft 392 kts 298°
2026-05-09 07:14 37.04443 30.40122 28401 ft 395 kts 298°
2026-05-09 07:15 37.05785 30.37108 28857 ft 397 kts 298°
2026-05-09 07:15 37.07133 30.34082 29293 ft 399 kts 298°
2026-05-09 07:15 37.08483 30.31043 29699 ft 401 kts 298°
2026-05-09 07:15 37.09843 30.27976 30102 ft 403 kts 298°
2026-05-09 07:16 37.11214 30.24880 30430 ft 406 kts 298°
2026-05-09 07:16 37.12585 30.21784 30728 ft 408 kts 298°
2026-05-09 07:16 37.13964 30.18667 31038 ft 410 kts 298°
2026-05-09 07:16 37.15349 30.15538 31323 ft 411 kts 298°
2026-05-09 07:17 37.16739 30.12400 31624 ft 411 kts 298°
2026-05-09 07:17 37.18124 30.09268 32004 ft 411 kts 298°
2026-05-09 07:17 37.19506 30.06132 32144 ft 412 kts 298°
2026-05-09 07:17 37.20898 30.02962 32177 ft 418 kts 297°
2026-05-09 07:18 37.23720 29.96526 32180 ft 422 kts 297°
2026-05-09 07:18 37.26550 29.90066 32187 ft 422 kts 297°
2026-05-09 07:19 37.29383 29.83600 32185 ft 423 kts 297°
2026-05-09 07:19 37.32200 29.77154 32185 ft 423 kts 297°
2026-05-09 07:20 37.35007 29.70650 32181 ft 423 kts 296°
2026-05-09 07:20 37.37615 29.64019 32175 ft 423 kts 294°
2026-05-09 07:21 37.40115 29.57336 32172 ft 423 kts 294°
2026-05-09 07:21 37.42635 29.50662 32157 ft 422 kts 295°
2026-05-09 07:22 37.45189 29.44011 32153 ft 423 kts 295°
2026-05-09 07:22 37.47729 29.37331 32154 ft 423 kts 294°
2026-05-09 07:23 37.50207 29.30597 32185 ft 424 kts 294°
2026-05-09 07:23 37.52671 29.23848 32187 ft 424 kts 294°
2026-05-09 07:24 37.55137 29.17107 32180 ft 424 kts 294°
2026-05-09 07:24 37.57614 29.10358 32176 ft 424 kts 294°
2026-05-09 07:25 37.60086 29.03606 32177 ft 424 kts 294°
2026-05-09 07:25 37.62557 28.96855 32173 ft 424 kts 294°
2026-05-09 07:26 37.65016 28.90093 32171 ft 423 kts 294°
2026-05-09 07:26 37.67465 28.83338 32162 ft 423 kts 294°
2026-05-09 07:27 37.69897 28.76616 32154 ft 423 kts 294°
2026-05-09 07:27 37.72342 28.69855 32152 ft 423 kts 294°
2026-05-09 07:28 37.74768 28.63074 32155 ft 423 kts 293°
2026-05-09 07:28 37.77167 28.56283 32154 ft 423 kts 293°
2026-05-09 07:29 37.79562 28.49474 32147 ft 423 kts 293°
2026-05-09 07:29 37.81949 28.42715 32146 ft 423 kts 293°
2026-05-09 07:30 37.84359 28.35914 32141 ft 423 kts 293°
2026-05-09 07:30 37.86753 28.29122 32140 ft 423 kts 293°
2026-05-09 07:31 37.89133 28.22318 32137 ft 423 kts 292°
2026-05-09 07:31 37.91510 28.15501 32034 ft 422 kts 292°
2026-05-09 07:32 37.92681 28.12155 31641 ft 408 kts 292°
2026-05-09 07:32 37.93818 28.08908 31272 ft 400 kts 292°
2026-05-09 07:32 37.94940 28.05691 30919 ft 398 kts 292°
2026-05-09 07:32 37.96054 28.02488 30543 ft 398 kts 292°
2026-05-09 07:33 37.97168 27.99273 30195 ft 399 kts 292°
2026-05-09 07:33 37.99402 27.92820 29419 ft 401 kts 292°
2026-05-09 07:33 38.00538 27.89588 29032 ft 402 kts 294°
2026-05-09 07:34 38.02038 27.86586 28654 ft 406 kts 307°
2026-05-09 07:34 38.04084 27.84101 28281 ft 410 kts 319°
2026-05-09 07:34 38.06520 27.82179 27902 ft 414 kts 329°
2026-05-09 07:34 38.09224 27.80856 27543 ft 418 kts 337°
2026-05-09 07:35 38.11982 27.79736 27206 ft 415 kts 337°
2026-05-09 07:35 38.14731 27.78612 26852 ft 413 kts 336°
2026-05-09 07:35 38.17462 27.77491 26497 ft 411 kts 336°
2026-05-09 07:35 38.20179 27.76375 26154 ft 410 kts 337°
2026-05-09 07:36 38.22887 27.75264 25813 ft 407 kts 337°
2026-05-09 07:36 38.25574 27.74165 25470 ft 405 kts 336°
2026-05-09 07:36 38.28250 27.73072 25137 ft 403 kts 337°
2026-05-09 07:36 38.30913 27.71981 24809 ft 401 kts 337°
2026-05-09 07:37 38.33558 27.70895 24478 ft 399 kts 337°
2026-05-09 07:37 38.36201 27.69810 24183 ft 398 kts 337°
2026-05-09 07:37 38.38828 27.68733 23861 ft 396 kts 337°
2026-05-09 07:37 38.41451 27.67660 23517 ft 394 kts 337°
2026-05-09 07:38 38.44054 27.66592 23127 ft 392 kts 337°
2026-05-09 07:38 38.46650 27.65526 22767 ft 391 kts 337°
2026-05-09 07:38 38.49233 27.64466 22398 ft 389 kts 337°
2026-05-09 07:38 38.51808 27.63408 22022 ft 388 kts 337°
2026-05-09 07:39 38.54342 27.62365 21676 ft 386 kts 337°
2026-05-09 07:39 38.56893 27.61312 21322 ft 385 kts 337°
2026-05-09 07:39 38.59438 27.60262 20979 ft 384 kts 338°
2026-05-09 07:39 38.61972 27.59216 20637 ft 383 kts 338°
2026-05-09 07:40 38.64504 27.58172 20294 ft 382 kts 338°
2026-05-09 07:40 38.67028 27.57128 19955 ft 380 kts 338°
2026-05-09 07:40 38.69544 27.56088 19623 ft 379 kts 338°
2026-05-09 07:40 38.72050 27.55050 19289 ft 378 kts 338°
2026-05-09 07:41 38.74547 27.54013 18952 ft 377 kts 338°
2026-05-09 07:41 38.77040 27.52977 18640 ft 376 kts 338°
2026-05-09 07:41 38.79529 27.51944 18307 ft 375 kts 338°
2026-05-09 07:41 38.82011 27.50915 17941 ft 375 kts 338°
2026-05-09 07:42 38.84484 27.49891 17577 ft 373 kts 338°
2026-05-09 07:42 38.86951 27.48868 17213 ft 371 kts 338°
2026-05-09 07:42 38.89404 27.47849 16848 ft 369 kts 338°
2026-05-09 07:42 38.91841 27.46835 16508 ft 367 kts 338°
2026-05-09 07:43 38.94266 27.45824 16157 ft 366 kts 338°
2026-05-09 07:43 38.96682 27.44817 15802 ft 363 kts 338°
2026-05-09 07:43 38.99077 27.43817 15463 ft 361 kts 338°
2026-05-09 07:43 39.01461 27.42820 15123 ft 360 kts 337°
2026-05-09 07:44 39.03841 27.41826 14784 ft 358 kts 338°
2026-05-09 07:44 39.05403 27.41172 14571 ft 358 kts 338°
2026-05-09 07:44 39.07768 27.40180 14238 ft 356 kts 338°
2026-05-09 07:44 39.10119 27.39196 13907 ft 355 kts 338°
2026-05-09 07:45 39.13220 27.37899 13417 ft 352 kts 338°
2026-05-09 07:45 39.15545 27.36926 13058 ft 350 kts 338°
2026-05-09 07:45 39.17085 27.36281 12816 ft 349 kts 338°
2026-05-09 07:45 39.19390 27.35316 12458 ft 347 kts 338°
2026-05-09 07:46 39.21682 27.34353 12103 ft 345 kts 338°
2026-05-09 07:46 39.23958 27.33394 11758 ft 343 kts 338°
2026-05-09 07:46 39.26221 27.32438 11420 ft 342 kts 338°
2026-05-09 07:46 39.28476 27.31489 11073 ft 341 kts 338°
2026-05-09 07:47 39.30728 27.30541 10730 ft 339 kts 338°
2026-05-09 07:47 39.32977 27.29595 10403 ft 339 kts 338°
2026-05-09 07:47 39.35210 27.28655 10070 ft 336 kts 338°
2026-05-09 07:47 39.37402 27.27733 9700 ft 325 kts 338°
2026-05-09 07:48 39.39519 27.26843 9340 ft 316 kts 338°
2026-05-09 07:48 39.41507 27.25781 8984 ft 302 kts 326°
2026-05-09 07:48 39.43120 27.24135 8625 ft 290 kts 310°
2026-05-09 07:48 39.44267 27.22100 8502 ft 272 kts 296°
2026-05-09 07:49 39.44967 27.19869 8469 ft 266 kts 283°
2026-05-09 07:49 39.45230 27.17520 8366 ft 264 kts 270°
2026-05-09 07:49 39.45046 27.15174 8283 ft 262 kts 257°
2026-05-09 07:49 39.44429 27.12968 8172 ft 262 kts 244°
2026-05-09 07:50 39.43429 27.10987 8073 ft 263 kts 235°
2026-05-09 07:50 39.42342 27.09084 8023 ft 263 kts 235°
2026-05-09 07:50 39.41273 27.07202 7970 ft 255 kts 236°
2026-05-09 07:50 39.40232 27.05367 7922 ft 252 kts 236°
2026-05-09 07:51 39.39198 27.03539 7871 ft 251 kts 236°
2026-05-09 07:51 39.38165 27.01716 7822 ft 251 kts 236°
2026-05-09 07:51 39.37136 26.99897 7774 ft 251 kts 236°
2026-05-09 07:51 39.36108 26.98080 7720 ft 250 kts 236°
2026-05-09 07:52 39.35079 26.96263 7620 ft 251 kts 236°
2026-05-09 07:52 39.34044 26.94438 7513 ft 252 kts 236°
2026-05-09 07:52 39.33009 26.92613 7515 ft 252 kts 236°
2026-05-09 07:52 39.31971 26.90789 7517 ft 252 kts 236°
2026-05-09 07:53 39.30934 26.88972 7518 ft 253 kts 236°
2026-05-09 07:53 39.29904 26.87165 7518 ft 252 kts 236°
2026-05-09 07:53 39.28851 26.85318 7515 ft 253 kts 235°
2026-05-09 07:53 39.27598 26.83720 7513 ft 257 kts 214°
2026-05-09 07:54 39.25911 26.83015 7514 ft 265 kts 187°
2026-05-09 07:54 39.24087 26.83474 7512 ft 274 kts 156°
2026-05-09 07:54 39.22651 26.85108 7512 ft 283 kts 124°
2026-05-09 07:54 39.22054 26.87515 7513 ft 287 kts 91°
2026-05-09 07:55 39.22504 26.90003 7514 ft 286 kts 59°
2026-05-09 07:55 39.23651 26.92090 7514 ft 286 kts 51°
2026-05-09 07:55 39.24842 26.94162 7519 ft 287 kts 51°
2026-05-09 07:55 39.26017 26.96237 7519 ft 287 kts 52°
2026-05-09 07:56 39.27228 26.98284 7517 ft 286 kts 43°
2026-05-09 07:56 39.28874 26.99588 7517 ft 276 kts 11°
2026-05-09 07:56 39.30742 26.99636 7519 ft 266 kts 341°
2026-05-09 07:56 39.32326 26.98532 7516 ft 257 kts 313°
2026-05-09 07:57 39.33290 26.96652 7517 ft 251 kts 287°
2026-05-09 07:57 39.33470 26.94445 7520 ft 249 kts 261°
2026-05-09 07:57 39.32853 26.92365 7518 ft 251 kts 238°
2026-05-09 07:57 39.31852 26.90515 7517 ft 251 kts 236°
2026-05-09 07:58 39.30815 26.88689 7517 ft 253 kts 235°
2026-05-09 07:58 39.29768 26.86870 7517 ft 252 kts 235°
2026-05-09 07:58 39.28720 26.85053 7515 ft 253 kts 234°
2026-05-09 07:58 39.27398 26.83549 7512 ft 258 kts 210°
2026-05-09 07:59 39.25644 26.83000 7514 ft 266 kts 182°
2026-05-09 07:59 39.23848 26.83651 7511 ft 276 kts 152°
2026-05-09 07:59 39.22505 26.85427 7512 ft 283 kts 120°
2026-05-09 07:59 39.22043 26.87889 7512 ft 288 kts 87°
2026-05-09 08:00 39.22637 26.90315 7512 ft 286 kts 55°
2026-05-09 08:00 39.23815 26.92387 7516 ft 287 kts 51°
2026-05-09 08:00 39.25002 26.94455 7519 ft 287 kts 51°
2026-05-09 08:00 39.26185 26.96537 7520 ft 287 kts 52°
2026-05-09 08:01 39.27430 26.98546 7520 ft 285 kts 39°
2026-05-09 08:01 39.29140 26.99683 7518 ft 275 kts
2026-05-09 08:01 39.30991 26.99546 7518 ft 264 kts 336°
2026-05-09 08:01 39.32496 26.98307 7518 ft 256 kts 309°
2026-05-09 08:02 39.33356 26.96351 7517 ft 251 kts 283°
2026-05-09 08:02 39.33427 26.94127 7518 ft 249 kts 258°
2026-05-09 08:02 39.32715 26.92096 7518 ft 251 kts 237°
2026-05-09 08:02 39.31704 26.90253 7515 ft 252 kts 235°
2026-05-09 08:03 39.30667 26.88431 7516 ft 253 kts 235°
2026-05-09 08:03 39.29621 26.86610 7515 ft 252 kts 235°
2026-05-09 08:03 39.28582 26.84816 7514 ft 254 kts 232°
2026-05-09 08:03 39.27190 26.83421 7512 ft 259 kts 206°
2026-05-09 08:04 39.25404 26.83030 7514 ft 268 kts 178°
2026-05-09 08:04 39.23630 26.83835 7512 ft 277 kts 148°
2026-05-09 08:04 39.22382 26.85734 7508 ft 284 kts 115°
2026-05-09 08:04 39.22065 26.88238 7517 ft 288 kts 83°
2026-05-09 08:05 39.22786 26.90609 7514 ft 286 kts 53°
2026-05-09 08:05 39.23957 26.92691 7515 ft 287 kts 51°
2026-05-09 08:05 39.25142 26.94763 7516 ft 287 kts 51°
2026-05-09 08:05 39.26324 26.96836 7517 ft 287 kts 51°
2026-05-09 08:06 39.27624 26.98776 7514 ft 283 kts 34°
2026-05-09 08:06 39.29386 26.99737 7517 ft 273 kts
2026-05-09 08:06 39.31217 26.99446 7517 ft 263 kts 333°
2026-05-09 08:06 39.32658 26.98100 7518 ft 255 kts 306°
2026-05-09 08:07 39.33418 26.96079 7516 ft 250 kts 279°
2026-05-09 08:07 39.33373 26.93857 7518 ft 249 kts 255°
2026-05-09 08:07 39.32586 26.91868 7518 ft 251 kts 237°
2026-05-09 08:07 39.31573 26.90031 7515 ft 251 kts 236°
2026-05-09 08:08 39.30533 26.88205 7514 ft 253 kts 235°
2026-05-09 08:08 39.29488 26.86385 7514 ft 252 kts 235°
2026-05-09 08:08 39.28436 26.84602 7512 ft 254 kts 230°
2026-05-09 08:08 39.26957 26.83305 7510 ft 260 kts 202°
2026-05-09 08:09 39.25141 26.83077 7513 ft 269 kts 174°
2026-05-09 08:09 39.23415 26.84051 7514 ft 279 kts 143°
2026-05-09 08:09 39.22278 26.86075 7511 ft 285 kts 110°
2026-05-09 08:09 39.22111 26.88614 7514 ft 288 kts 78°
2026-05-09 08:10 39.22958 26.90867 7514 ft 285 kts 47°
2026-05-09 08:10 39.24282 26.92763 7515 ft 286 kts 48°
2026-05-09 08:10 39.25491 26.94811 7516 ft 287 kts 52°
2026-05-09 08:10 39.26625 26.96932 7518 ft 288 kts 54°
2026-05-09 08:11 39.27915 26.98873 7513 ft 283 kts 33°
2026-05-09 08:11 39.29696 26.99756 7517 ft 272 kts 359°
2026-05-09 08:11 39.31494 26.99305 7514 ft 261 kts 328°
2026-05-09 08:11 39.32836 26.97811 7515 ft 254 kts 301°
2026-05-09 08:12 39.33313 26.93517 7396 ft 251 kts 251°
2026-05-09 08:12 39.32449 26.91576 7103 ft 249 kts 236°
2026-05-09 08:12 39.31446 26.89783 6811 ft 244 kts 235°
2026-05-09 08:13 39.30513 26.88000 6519 ft 237 kts 245°
2026-05-09 08:13 39.30143 26.85972 6240 ft 230 kts 270°
2026-05-09 08:13 39.30479 26.83991 5966 ft 229 kts 294°
2026-05-09 08:13 39.31458 26.82371 5688 ft 233 kts 317°
2026-05-09 08:14 39.32763 26.81109 5402 ft 234 kts 320°
2026-05-09 08:14 39.34073 26.79861 5141 ft 234 kts 320°
2026-05-09 08:14 39.35385 26.78612 4872 ft 234 kts 320°
2026-05-09 08:14 39.36699 26.77360 4592 ft 235 kts 320°
2026-05-09 08:15 39.38014 26.76111 4323 ft 234 kts 322°
2026-05-09 08:15 39.39528 26.75383 4018 ft 238 kts 358°
2026-05-09 08:15 39.41068 26.76047 3747 ft 237 kts 40°
2026-05-09 08:15 39.42168 26.77611 3482 ft 235 kts 58°
2026-05-09 08:16 39.43030 26.79389 3218 ft 232 kts 58°
2026-05-09 08:16 39.43926 26.81074 3119 ft 221 kts 57°
2026-05-09 08:16 39.44793 26.82608 3134 ft 200 kts 56°
2026-05-09 08:16 39.45584 26.83994 2947 ft 183 kts 57°
2026-05-09 08:17 39.46294 26.85241 2742 ft 162 kts 57°
2026-05-09 08:17 39.46928 26.86357 2545 ft 147 kts 57°
2026-05-09 08:17 39.47518 26.87396 2360 ft 141 kts 56°
2026-05-09 08:17 39.48110 26.88440 2170 ft 150 kts 54°
2026-05-09 08:18 39.48731 26.89534 1975 ft 151 kts 54°
2026-05-09 08:18 39.49354 26.90633 1767 ft 151 kts 53°
2026-05-09 08:18 39.49969 26.91717 1564 ft 149 kts 53°
2026-05-09 08:18 39.50577 26.92787 1374 ft 146 kts 53°
2026-05-09 08:19 39.51175 26.93842 1180 ft 144 kts 53°
2026-05-09 08:19 39.51764 26.94882 987 ft 142 kts 53°
2026-05-09 08:19 39.52355 26.95922 793 ft 144 kts 52°
2026-05-09 08:19 39.52947 26.96968 601 ft 144 kts 52°
2026-05-09 08:20 39.53526 26.97999 378 ft 139 kts 53°
2026-05-09 08:20 39.54084 26.98985 173 ft 133 kts 51°
2026-05-09 08:20 39.54627 26.99943 52 ft 131 kts 51°
2026-05-09 08:20 39.55083 27.00743 48 ft 85 kts 53°
2026-05-09 08:21 39.55356 27.01224 54 ft 54 kts 54°
2026-05-09 08:21 39.55572 27.01605 53 ft 51 kts 54°
2026-05-09 08:21 39.55773 27.01958 50 ft 39 kts 54°
2026-05-09 08:21 39.55902 27.02188 56 ft 25 kts 53°
2026-05-09 08:22 39.56001 27.02366 54 ft 17 kts 54°
2026-05-09 08:22 39.56050 27.02350 59 ft 12 kts 244°
2026-05-09 08:22 39.55960 27.02288 55 ft 18 kts 223°
2026-05-09 08:22 39.55870 27.02130 51 ft 25 kts 233°
2026-05-09 08:23 39.55757 27.01932 54 ft 29 kts 233°
2026-05-09 08:23 39.55632 27.01711 51 ft 28 kts 234°
2026-05-09 08:23 39.55515 27.01505 53 ft 30 kts 233°
2026-05-09 08:23 39.55390 27.01287 52 ft 31 kts 233°
2026-05-09 08:24 39.55262 27.01060 53 ft 27 kts 233°
2026-05-09 08:24 39.55171 27.00942 49 ft 15 kts 170°
2026-05-09 08:24 39.55099 27.01004 48 ft 12 kts 144°
2026-05-09 08:24 39.55031 27.01068 50 ft 11 kts 144°
2026-05-09 08:25 39.54974 27.01116 51 ft 9 kts 153°
2026-05-09 08:25 39.54931 27.01153 51 ft 3 kts 143°
2026-05-09 08:25 39.54927 27.01158 51 ft 0 kts 143°
2026-05-09 08:25 39.54926 27.01158 51 ft 0 kts 143°
2026-05-09 08:38 39.54933 27.01152 51 ft 4 kts 150°
2026-05-09 08:38 39.54952 27.01136 51 ft 4 kts 135°
2026-05-09 08:39 39.54963 27.01110 51 ft 4 kts 78°
2026-05-09 08:39 39.54951 27.01081 46 ft 4 kts 52°
2026-05-09 08:39 39.54946 27.01072 48 ft 0 kts 54°
2026-05-09 08:43 39.54961 27.01097 48 ft 9 kts 45°